contact:dominique.lefevre@mio.osupytheas.fr, maurice.libes@osupytheas.fr, didier.mallarino@osupytheas.fr
Project:EMSO http://www.emso-fr.org/EMSO-France
Depth: 2436.0 m
Title:EMSO Ligure Ouest : Data MII capteur MICROCAT
DateTime_Computer,Latitude,Longitude,Temperature,Conductivity,Pressure,DateTime_Instrument
DateTime_Computer,Latitude,Longitude,degC,S m-1,dbar,DateTime_Instrument
2023-07-04T00:00:19Z,42.805,6.029,13.3024,4.60082,2470.777,2023-7-04T02:02:35Z
2023-07-04T00:03:22Z,42.805,6.029,13.3023,4.60081,2470.717,2023-7-04T02:05:38Z
2023-07-04T00:06:25Z,42.805,6.029,13.3024,4.60081,2470.73,2023-7-04T02:08:41Z
2023-07-04T00:09:28Z,42.805,6.029,13.3022,4.60081,2470.693,2023-7-04T02:11:44Z
2023-07-04T00:12:31Z,42.805,6.029,13.3026,4.60082,2470.74,2023-7-04T02:14:47Z
2023-07-04T00:15:34Z,42.805,6.029,13.3025,4.60082,2470.717,2023-7-04T02:17:50Z
2023-07-04T00:18:37Z,42.805,6.029,13.3026,4.60082,2470.693,2023-7-04T02:20:53Z
2023-07-04T00:21:40Z,42.805,6.029,13.3028,4.60082,2470.693,2023-7-04T02:23:56Z
2023-07-04T00:24:43Z,42.805,6.029,13.3025,4.60081,2470.693,2023-7-04T02:26:59Z
2023-07-04T00:27:47Z,42.805,6.029,13.3023,4.60081,2470.717,2023-7-04T02:30:02Z
2023-07-04T00:30:50Z,42.805,6.029,13.3024,4.60081,2470.693,2023-7-04T02:33:05Z
2023-07-04T00:33:53Z,42.805,6.029,13.3026,4.60081,2470.684,2023-7-04T02:36:08Z
2023-07-04T00:36:56Z,42.805,6.029,13.3026,4.60081,2470.693,2023-7-04T02:39:11Z
2023-07-04T00:39:59Z,42.805,6.029,13.3026,4.60081,2470.67,2023-7-04T02:42:15Z
2023-07-04T00:43:02Z,42.805,6.029,13.3029,4.60083,2470.67,2023-7-04T02:45:18Z
2023-07-04T00:46:05Z,42.805,6.029,13.3023,4.60081,2470.684,2023-7-04T02:48:21Z
2023-07-04T00:49:08Z,42.805,6.029,13.3024,4.60084,2470.717,2023-7-04T02:51:24Z
2023-07-04T00:52:11Z,42.805,6.029,13.3024,4.60082,2470.693,2023-7-04T02:54:27Z
2023-07-04T00:55:14Z,42.805,6.029,13.3027,4.60081,2470.646,2023-7-04T02:57:30Z
2023-07-04T00:58:17Z,42.805,6.029,13.3027,4.60081,2470.661,2023-7-04T03:00:33Z
2023-07-04T01:01:20Z,42.805,6.029,13.3020,4.60082,2470.661,2023-7-04T03:03:36Z
2023-07-04T01:04:23Z,42.805,6.029,13.3025,4.60081,2470.661,2023-7-04T03:06:39Z
2023-07-04T01:07:27Z,42.805,6.029,13.3021,4.60081,2470.693,2023-7-04T03:09:42Z
2023-07-04T01:10:30Z,42.805,6.029,13.3021,4.60081,2470.684,2023-7-04T03:12:45Z
2023-07-04T01:13:33Z,42.805,6.029,13.3021,4.60081,2470.67,2023-7-04T03:15:48Z
2023-07-04T01:16:36Z,42.805,6.029,13.3021,4.60082,2470.661,2023-7-04T03:18:52Z
2023-07-04T01:19:39Z,42.805,6.029,13.3023,4.60082,2470.67,2023-7-04T03:21:55Z
2023-07-04T01:22:42Z,42.805,6.029,13.3026,4.60083,2470.67,2023-7-04T03:24:58Z
2023-07-04T01:25:45Z,42.805,6.029,13.3024,4.60084,2470.67,2023-7-04T03:28:01Z
2023-07-04T01:28:48Z,42.805,6.029,13.3022,4.60081,2470.661,2023-7-04T03:31:04Z
2023-07-04T01:31:51Z,42.805,6.029,13.3026,4.60081,2470.67,2023-7-04T03:34:07Z
2023-07-04T01:34:54Z,42.805,6.029,13.3019,4.60082,2470.67,2023-7-04T03:37:10Z
2023-07-04T01:37:57Z,42.805,6.029,13.3027,4.60082,2470.646,2023-7-04T03:40:13Z
2023-07-04T01:41:00Z,42.805,6.029,13.3022,4.60081,2470.646,2023-7-04T03:43:16Z
2023-07-04T01:44:04Z,42.805,6.029,13.3026,4.60082,2470.67,2023-7-04T03:46:19Z
2023-07-04T01:47:07Z,42.805,6.029,13.3026,4.60082,2470.646,2023-7-04T03:49:22Z
2023-07-04T01:50:10Z,42.805,6.029,13.3024,4.60081,2470.684,2023-7-04T03:52:25Z
2023-07-04T01:53:13Z,42.805,6.029,13.3026,4.60081,2470.637,2023-7-04T03:55:28Z
2023-07-04T01:56:16Z,42.805,6.029,13.3024,4.60081,2470.624,2023-7-04T03:58:32Z
2023-07-04T01:59:19Z,42.805,6.029,13.3023,4.60084,2470.646,2023-7-04T04:01:35Z
2023-07-04T02:02:22Z,42.805,6.029,13.3024,4.60082,2470.624,2023-7-04T04:04:38Z
2023-07-04T02:05:25Z,42.805,6.029,13.3021,4.60081,2470.646,2023-7-04T04:07:41Z
2023-07-04T02:08:28Z,42.805,6.029,13.3026,4.60082,2470.646,2023-7-04T04:10:44Z
2023-07-04T02:11:31Z,42.805,6.029,13.3026,4.60081,2470.646,2023-7-04T04:13:47Z
2023-07-04T02:14:34Z,42.805,6.029,13.3026,4.60081,2470.624,2023-7-04T04:16:50Z
2023-07-04T02:17:37Z,42.805,6.029,13.3025,4.60081,2470.661,2023-7-04T04:19:53Z
2023-07-04T02:20:40Z,42.805,6.029,13.3026,4.60081,2470.646,2023-7-04T04:22:56Z
2023-07-04T02:23:44Z,42.805,6.029,13.3026,4.60084,2470.661,2023-7-04T04:25:59Z
2023-07-04T02:26:47Z,42.805,6.029,13.3022,4.60082,2470.646,2023-7-04T04:29:02Z
2023-07-04T02:29:50Z,42.805,6.029,13.3024,4.60082,2470.67,2023-7-04T04:32:05Z
2023-07-04T02:32:53Z,42.805,6.029,13.3026,4.60082,2470.646,2023-7-04T04:35:08Z
2023-07-04T02:35:56Z,42.805,6.029,13.3025,4.60081,2470.646,2023-7-04T04:38:12Z
2023-07-04T02:38:59Z,42.805,6.029,13.3025,4.60082,2470.646,2023-7-04T04:41:15Z
2023-07-04T02:42:02Z,42.805,6.029,13.3023,4.60081,2470.656,2023-7-04T04:44:18Z
2023-07-04T02:45:05Z,42.805,6.029,13.3024,4.60081,2470.67,2023-7-04T04:47:21Z
2023-07-04T02:48:08Z,42.805,6.029,13.3026,4.60081,2470.624,2023-7-04T04:50:24Z
2023-07-04T02:51:11Z,42.805,6.029,13.3029,4.60082,2470.624,2023-7-04T04:53:27Z
2023-07-04T02:54:14Z,42.805,6.029,13.3027,4.60082,2470.661,2023-7-04T04:56:30Z
2023-07-04T02:57:17Z,42.805,6.029,13.3025,4.60081,2470.646,2023-7-04T04:59:33Z
2023-07-04T03:00:20Z,42.805,6.029,13.3023,4.60083,2470.661,2023-7-04T05:02:36Z
2023-07-04T03:03:24Z,42.805,6.029,13.3024,4.60084,2470.624,2023-7-04T05:05:39Z
2023-07-04T03:06:27Z,42.805,6.029,13.3025,4.60081,2470.637,2023-7-04T05:08:42Z
2023-07-04T03:09:30Z,42.805,6.029,13.3021,4.60082,2470.684,2023-7-04T05:11:45Z
2023-07-04T03:12:33Z,42.805,6.029,13.3026,4.60082,2470.637,2023-7-04T05:14:48Z
2023-07-04T03:15:36Z,42.805,6.029,13.3021,4.60082,2470.646,2023-7-04T05:17:52Z
2023-07-04T03:18:39Z,42.805,6.029,13.3026,4.60081,2470.624,2023-7-04T05:20:55Z
2023-07-04T03:21:42Z,42.805,6.029,13.3026,4.60083,2470.646,2023-7-04T05:23:58Z
2023-07-04T03:24:45Z,42.805,6.029,13.3030,4.60082,2470.624,2023-7-04T05:27:01Z
2023-07-04T03:27:48Z,42.805,6.029,13.3021,4.60081,2470.646,2023-7-04T05:30:04Z
2023-07-04T03:30:51Z,42.805,6.029,13.3025,4.60081,2470.646,2023-7-04T05:33:07Z
2023-07-04T03:33:54Z,42.805,6.029,13.3024,4.60081,2470.661,2023-7-04T05:36:10Z
2023-07-04T03:36:57Z,42.805,6.029,13.3024,4.60083,2470.646,2023-7-04T05:39:13Z
2023-07-04T03:40:00Z,42.805,6.029,13.3024,4.60082,2470.661,2023-7-04T05:42:16Z
2023-07-04T03:43:04Z,42.805,6.029,13.3023,4.60081,2470.661,2023-7-04T05:45:19Z
2023-07-04T03:46:07Z,42.805,6.029,13.3024,4.60083,2470.646,2023-7-04T05:48:22Z
2023-07-04T03:49:10Z,42.805,6.029,13.3025,4.60080,2470.646,2023-7-04T05:51:25Z
2023-07-04T03:52:13Z,42.805,6.029,13.3026,4.60081,2470.693,2023-7-04T05:54:29Z
2023-07-04T03:55:16Z,42.805,6.029,13.3027,4.60081,2470.624,2023-7-04T05:57:32Z
2023-07-04T03:58:19Z,42.805,6.029,13.3024,4.60083,2470.67,2023-7-04T06:00:35Z
2023-07-04T04:01:22Z,42.805,6.029,13.3023,4.60083,2470.67,2023-7-04T06:03:38Z
2023-07-04T04:04:25Z,42.805,6.029,13.3024,4.60081,2470.646,2023-7-04T06:06:41Z
2023-07-04T04:07:28Z,42.805,6.029,13.3025,4.60082,2470.707,2023-7-04T06:09:44Z
2023-07-04T04:10:31Z,42.805,6.029,13.3022,4.60081,2470.684,2023-7-04T06:12:47Z
2023-07-04T04:13:34Z,42.805,6.029,13.3023,4.60082,2470.656,2023-7-04T06:15:50Z
2023-07-04T04:16:37Z,42.805,6.029,13.3026,4.60081,2470.661,2023-7-04T06:18:53Z
2023-07-04T04:19:40Z,42.805,6.029,13.3026,4.60081,2470.707,2023-7-04T06:21:56Z
2023-07-04T04:22:44Z,42.805,6.029,13.3024,4.60081,2470.684,2023-7-04T06:24:59Z
2023-07-04T04:25:47Z,42.805,6.029,13.3020,4.60081,2470.67,2023-7-04T06:28:02Z
2023-07-04T04:28:50Z,42.805,6.029,13.3029,4.60081,2470.67,2023-7-04T06:31:05Z
2023-07-04T04:31:53Z,42.805,6.029,13.3023,4.60084,2470.707,2023-7-04T06:34:09Z
2023-07-04T04:34:56Z,42.805,6.029,13.3026,4.60081,2470.646,2023-7-04T06:37:12Z
2023-07-04T04:37:59Z,42.805,6.029,13.3026,4.60081,2470.684,2023-7-04T06:40:15Z
2023-07-04T04:41:02Z,42.805,6.029,13.3025,4.60081,2470.656,2023-7-04T06:43:18Z
2023-07-04T04:44:05Z,42.805,6.029,13.3024,4.60082,2470.717,2023-7-04T06:46:21Z
2023-07-04T04:47:08Z,42.805,6.029,13.3026,4.60084,2470.693,2023-7-04T06:49:24Z
2023-07-04T04:50:11Z,42.805,6.029,13.3025,4.60082,2470.693,2023-7-04T06:52:27Z
2023-07-04T04:53:14Z,42.805,6.029,13.3024,4.60084,2470.684,2023-7-04T06:55:30Z
2023-07-04T04:56:18Z,42.805,6.029,13.3021,4.60081,2470.693,2023-7-04T06:58:33Z
2023-07-04T04:59:21Z,42.805,6.029,13.3025,4.60083,2470.693,2023-7-04T07:01:36Z
2023-07-04T05:02:24Z,42.805,6.029,13.3024,4.60082,2470.717,2023-7-04T07:04:39Z
2023-07-04T05:05:27Z,42.805,6.029,13.3021,4.60081,2470.707,2023-7-04T07:07:42Z
2023-07-04T05:08:30Z,42.805,6.029,13.3026,4.60084,2470.707,2023-7-04T07:10:46Z
2023-07-04T05:11:33Z,42.805,6.029,13.3021,4.60084,2470.707,2023-7-04T07:13:49Z
2023-07-04T05:14:36Z,42.805,6.029,13.3027,4.60084,2470.707,2023-7-04T07:16:52Z
2023-07-04T05:17:39Z,42.805,6.029,13.3023,4.60083,2470.717,2023-7-04T07:19:55Z
2023-07-04T05:20:42Z,42.805,6.029,13.3023,4.60081,2470.754,2023-7-04T07:22:58Z
2023-07-04T05:23:45Z,42.805,6.029,13.3023,4.60084,2470.717,2023-7-04T07:26:01Z
2023-07-04T05:26:48Z,42.805,6.029,13.3023,4.60082,2470.717,2023-7-04T07:29:04Z
2023-07-04T05:29:51Z,42.805,6.029,13.3026,4.60083,2470.754,2023-7-04T07:32:07Z
2023-07-04T05:32:54Z,42.805,6.029,13.3024,4.60081,2470.74,2023-7-04T07:35:10Z
2023-07-04T05:35:57Z,42.805,6.029,13.3022,4.60084,2470.754,2023-7-04T07:38:13Z
2023-07-04T05:39:01Z,42.805,6.029,13.3024,4.60084,2470.717,2023-7-04T07:41:16Z
2023-07-04T05:42:04Z,42.805,6.029,13.3024,4.60081,2470.693,2023-7-04T07:44:19Z
2023-07-04T05:45:07Z,42.805,6.029,13.3027,4.60085,2470.763,2023-7-04T07:47:22Z
2023-07-04T05:48:10Z,42.805,6.029,13.3025,4.60081,2470.754,2023-7-04T07:50:26Z
2023-07-04T05:51:13Z,42.805,6.029,13.3022,4.60083,2470.754,2023-7-04T07:53:29Z
2023-07-04T05:54:16Z,42.805,6.029,13.3025,4.60084,2470.74,2023-7-04T07:56:32Z
2023-07-04T05:57:19Z,42.805,6.029,13.3027,4.60082,2470.787,2023-7-04T07:59:35Z
2023-07-04T06:00:22Z,42.805,6.029,13.3022,4.60081,2470.74,2023-7-04T08:02:38Z
2023-07-04T06:03:25Z,42.805,6.029,13.3025,4.60082,2470.787,2023-7-04T08:05:41Z
2023-07-04T06:06:28Z,42.805,6.029,13.3024,4.60083,2470.74,2023-7-04T08:08:44Z
2023-07-04T06:09:31Z,42.805,6.029,13.3023,4.60081,2470.74,2023-7-04T08:11:47Z
2023-07-04T06:12:34Z,42.805,6.029,13.3024,4.60083,2470.763,2023-7-04T08:14:50Z
2023-07-04T06:15:38Z,42.805,6.029,13.3027,4.60084,2470.777,2023-7-04T08:17:53Z
2023-07-04T06:18:41Z,42.805,6.029,13.3020,4.60081,2470.74,2023-7-04T08:20:56Z
2023-07-04T06:21:44Z,42.805,6.029,13.3023,4.60082,2470.763,2023-7-04T08:23:59Z
2023-07-04T06:24:47Z,42.805,6.029,13.3029,4.60084,2470.763,2023-7-04T08:27:03Z
2023-07-04T06:27:50Z,42.805,6.029,13.3024,4.60081,2470.754,2023-7-04T08:30:06Z
2023-07-04T06:30:53Z,42.805,6.029,13.3023,4.60082,2470.763,2023-7-04T08:33:09Z
2023-07-04T06:33:56Z,42.805,6.029,13.3024,4.60082,2470.787,2023-7-04T08:36:12Z
2023-07-04T06:36:59Z,42.805,6.029,13.3024,4.60083,2470.763,2023-7-04T08:39:15Z
2023-07-04T06:40:02Z,42.805,6.029,13.3023,4.60081,2470.787,2023-7-04T08:42:18Z
2023-07-04T06:43:05Z,42.805,6.029,13.3025,4.60084,2470.74,2023-7-04T08:45:21Z
2023-07-04T06:46:08Z,42.805,6.029,13.3022,4.60084,2470.763,2023-7-04T08:48:24Z
2023-07-04T06:49:11Z,42.805,6.029,13.3023,4.60083,2470.763,2023-7-04T08:51:27Z
2023-07-04T06:52:15Z,42.805,6.029,13.3025,4.60082,2470.787,2023-7-04T08:54:30Z
2023-07-04T06:55:18Z,42.805,6.029,13.3024,4.60084,2470.787,2023-7-04T08:57:33Z
2023-07-04T06:58:21Z,42.805,6.029,13.3024,4.60081,2470.81,2023-7-04T09:00:36Z
2023-07-04T07:01:24Z,42.805,6.029,13.3026,4.60082,2470.763,2023-7-04T09:03:39Z
2023-07-04T07:04:27Z,42.805,6.029,13.3026,4.60082,2470.777,2023-7-04T09:06:43Z
2023-07-04T07:07:30Z,42.805,6.029,13.3025,4.60084,2470.787,2023-7-04T09:09:46Z
2023-07-04T07:10:33Z,42.805,6.029,13.3026,4.60084,2470.777,2023-7-04T09:12:49Z
2023-07-04T07:13:36Z,42.805,6.029,13.3021,4.60084,2470.777,2023-7-04T09:15:52Z
2023-07-04T07:16:39Z,42.805,6.029,13.3023,4.60084,2470.787,2023-7-04T09:18:55Z
2023-07-04T07:19:42Z,42.805,6.029,13.3024,4.60084,2470.777,2023-7-04T09:21:58Z
2023-07-04T07:22:45Z,42.805,6.029,13.3022,4.60084,2470.777,2023-7-04T09:25:01Z
2023-07-04T07:25:48Z,42.805,6.029,13.3026,4.60084,2470.8,2023-7-04T09:28:04Z
2023-07-04T07:28:51Z,42.805,6.029,13.3023,4.60084,2470.754,2023-7-04T09:31:07Z
2023-07-04T07:31:55Z,42.805,6.029,13.3024,4.60085,2470.777,2023-7-04T09:34:10Z
2023-07-04T07:34:58Z,42.805,6.029,13.3025,4.60084,2470.763,2023-7-04T09:37:13Z
2023-07-04T07:38:01Z,42.805,6.029,13.3024,4.60085,2470.763,2023-7-04T09:40:16Z
2023-07-04T07:41:04Z,42.805,6.029,13.3024,4.60082,2470.777,2023-7-04T09:43:20Z
2023-07-04T07:44:07Z,42.805,6.029,13.3025,4.60084,2470.763,2023-7-04T09:46:23Z
2023-07-04T07:47:10Z,42.805,6.029,13.3024,4.60082,2470.81,2023-7-04T09:49:26Z
2023-07-04T07:50:13Z,42.805,6.029,13.3025,4.60084,2470.763,2023-7-04T09:52:29Z
2023-07-04T07:53:16Z,42.805,6.029,13.3024,4.60084,2470.763,2023-7-04T09:55:32Z
2023-07-04T07:56:19Z,42.805,6.029,13.3030,4.60084,2470.777,2023-7-04T09:58:35Z
2023-07-04T07:59:22Z,42.805,6.029,13.3026,4.60084,2470.81,2023-7-04T10:01:38Z
2023-07-04T08:02:25Z,42.805,6.029,13.3025,4.60082,2470.717,2023-7-04T10:04:41Z
2023-07-04T08:05:28Z,42.805,6.029,13.3026,4.60084,2470.763,2023-7-04T10:07:44Z
2023-07-04T08:08:32Z,42.805,6.029,13.3021,4.60084,2470.8,2023-7-04T10:10:47Z
2023-07-04T08:11:35Z,42.805,6.029,13.3026,4.60084,2470.763,2023-7-04T10:13:50Z
2023-07-04T08:14:38Z,42.805,6.029,13.3026,4.60084,2470.763,2023-7-04T10:16:53Z
2023-07-04T08:17:41Z,42.805,6.029,13.3022,4.60084,2470.763,2023-7-04T10:19:57Z
2023-07-04T08:20:44Z,42.805,6.029,13.3028,4.60083,2470.75,2023-7-04T10:23:00Z
2023-07-04T08:23:47Z,42.805,6.029,13.3024,4.60082,2470.74,2023-7-04T10:26:03Z
2023-07-04T08:26:50Z,42.805,6.029,13.3024,4.60084,2470.763,2023-7-04T10:29:06Z
2023-07-04T08:29:53Z,42.805,6.029,13.3024,4.60084,2470.74,2023-7-04T10:32:09Z
2023-07-04T08:32:56Z,42.805,6.029,13.3024,4.60083,2470.777,2023-7-04T10:35:11Z
2023-07-04T08:35:59Z,42.805,6.029,13.3027,4.60082,2470.763,2023-7-04T10:38:14Z
2023-07-04T08:39:02Z,42.805,6.029,13.3025,4.60084,2470.8,2023-7-04T10:41:17Z
2023-07-04T08:42:05Z,42.805,6.029,13.3025,4.60084,2470.754,2023-7-04T10:44:21Z
2023-07-04T08:45:08Z,42.805,6.029,13.3026,4.60083,2470.763,2023-7-04T10:47:24Z
2023-07-04T08:48:11Z,42.805,6.029,13.3023,4.60082,2470.74,2023-7-04T10:50:27Z
2023-07-04T08:51:14Z,42.805,6.029,13.3024,4.60082,2470.763,2023-7-04T10:53:30Z
2023-07-04T08:54:17Z,42.805,6.029,13.3026,4.60085,2470.8,2023-7-04T10:56:33Z
2023-07-04T08:57:20Z,42.805,6.029,13.3025,4.60083,2470.74,2023-7-04T10:59:36Z
2023-07-04T09:00:23Z,42.805,6.029,13.3022,4.60086,2470.754,2023-7-04T11:02:39Z
2023-07-04T09:03:26Z,42.805,6.029,13.3026,4.60081,2470.74,2023-7-04T11:05:42Z
2023-07-04T09:06:29Z,42.805,6.029,13.3025,4.60081,2470.707,2023-7-04T11:08:45Z
2023-07-04T09:09:33Z,42.805,6.029,13.3024,4.60083,2470.717,2023-7-04T11:11:48Z
2023-07-04T09:12:36Z,42.805,6.029,13.3027,4.60081,2470.74,2023-7-04T11:14:51Z
2023-07-04T09:15:39Z,42.805,6.029,13.3026,4.60081,2470.717,2023-7-04T11:17:54Z
2023-07-04T09:18:42Z,42.805,6.029,13.3021,4.60081,2470.707,2023-7-04T11:20:58Z
2023-07-04T09:21:45Z,42.805,6.029,13.3024,4.60081,2470.754,2023-7-04T11:24:01Z
2023-07-04T09:24:48Z,42.805,6.029,13.3021,4.60081,2470.73,2023-7-04T11:27:04Z
2023-07-04T09:27:51Z,42.805,6.029,13.3025,4.60081,2470.693,2023-7-04T11:30:07Z
2023-07-04T09:30:54Z,42.805,6.029,13.3029,4.60081,2470.717,2023-7-04T11:33:10Z
2023-07-04T09:33:57Z,42.805,6.029,13.3024,4.60081,2470.693,2023-7-04T11:36:13Z
2023-07-04T09:37:00Z,42.805,6.029,13.3026,4.60084,2470.717,2023-7-04T11:39:16Z
2023-07-04T09:40:03Z,42.805,6.029,13.3028,4.60082,2470.717,2023-7-04T11:42:19Z
2023-07-04T09:43:06Z,42.805,6.029,13.3024,4.60081,2470.717,2023-7-04T11:45:22Z
2023-07-04T09:46:10Z,42.805,6.029,13.3020,4.60081,2470.693,2023-7-04T11:48:25Z
2023-07-04T09:49:13Z,42.805,6.029,13.3026,4.60084,2470.717,2023-7-04T11:51:28Z
2023-07-04T09:52:16Z,42.805,6.029,13.3024,4.60081,2470.707,2023-7-04T11:54:31Z
2023-07-04T09:55:19Z,42.805,6.029,13.3026,4.60084,2470.693,2023-7-04T11:57:35Z
2023-07-04T09:58:22Z,42.805,6.029,13.3024,4.60084,2470.707,2023-7-04T12:00:38Z
2023-07-04T10:01:25Z,42.805,6.029,13.3024,4.60083,2470.717,2023-7-04T12:03:41Z
2023-07-04T10:04:28Z,42.805,6.029,13.3025,4.60084,2470.67,2023-7-04T12:06:44Z
2023-07-04T10:07:31Z,42.805,6.029,13.3028,4.60083,2470.707,2023-7-04T12:09:47Z
2023-07-04T10:10:34Z,42.805,6.029,13.3029,4.60081,2470.693,2023-7-04T12:12:50Z
2023-07-04T10:13:37Z,42.805,6.029,13.3025,4.60081,2470.693,2023-7-04T12:15:53Z
2023-07-04T10:16:40Z,42.805,6.029,13.3024,4.60082,2470.717,2023-7-04T12:18:56Z
2023-07-04T10:19:43Z,42.805,6.029,13.3023,4.60084,2470.717,2023-7-04T12:21:59Z
2023-07-04T10:22:47Z,42.805,6.029,13.3025,4.60083,2470.67,2023-7-04T12:25:02Z
2023-07-04T10:25:50Z,42.805,6.029,13.3024,4.60082,2470.67,2023-7-04T12:28:05Z
2023-07-04T10:28:53Z,42.805,6.029,13.3023,4.60084,2470.67,2023-7-04T12:31:08Z
2023-07-04T10:31:54Z,42.805,6.029,13.3021,4.60084,2470.693,2023-7-04T12:34:10Z
2023-07-04T10:34:57Z,42.805,6.029,13.3022,4.60084,2470.693,2023-7-04T12:37:13Z
2023-07-04T10:38:00Z,42.805,6.029,13.3024,4.60081,2470.67,2023-7-04T12:40:16Z
2023-07-04T10:41:03Z,42.805,6.029,13.3025,4.60082,2470.67,2023-7-04T12:43:19Z
2023-07-04T10:44:06Z,42.805,6.029,13.3023,4.60081,2470.646,2023-7-04T12:46:22Z
2023-07-04T10:47:10Z,42.805,6.029,13.3022,4.60084,2470.661,2023-7-04T12:49:25Z
2023-07-04T10:50:13Z,42.805,6.029,13.3021,4.60082,2470.661,2023-7-04T12:52:28Z
2023-07-04T10:53:16Z,42.805,6.029,13.3024,4.60081,2470.693,2023-7-04T12:55:31Z
2023-07-04T10:56:19Z,42.805,6.029,13.3024,4.60081,2470.67,2023-7-04T12:58:35Z
2023-07-04T10:59:22Z,42.805,6.029,13.3026,4.60082,2470.717,2023-7-04T13:01:38Z
2023-07-04T11:02:25Z,42.805,6.029,13.3025,4.60081,2470.624,2023-7-04T13:04:41Z
2023-07-04T11:05:28Z,42.805,6.029,13.3026,4.60081,2470.67,2023-7-04T13:07:44Z
2023-07-04T11:08:31Z,42.805,6.029,13.3024,4.60082,2470.684,2023-7-04T13:10:47Z
2023-07-04T11:11:34Z,42.805,6.029,13.3024,4.60081,2470.637,2023-7-04T13:13:50Z
2023-07-04T11:14:37Z,42.805,6.029,13.3026,4.60081,2470.637,2023-7-04T13:16:53Z
2023-07-04T11:17:40Z,42.805,6.029,13.3026,4.60082,2470.646,2023-7-04T13:19:56Z
2023-07-04T11:20:43Z,42.805,6.029,13.3024,4.60081,2470.624,2023-7-04T13:22:59Z
2023-07-04T11:23:47Z,42.805,6.029,13.3024,4.60081,2470.624,2023-7-04T13:26:02Z
2023-07-04T11:26:50Z,42.805,6.029,13.3023,4.60081,2470.646,2023-7-04T13:29:05Z
2023-07-04T11:29:53Z,42.805,6.029,13.3023,4.60081,2470.624,2023-7-04T13:32:08Z
2023-07-04T11:32:56Z,42.805,6.029,13.3023,4.60081,2470.624,2023-7-04T13:35:12Z
2023-07-04T11:35:59Z,42.805,6.029,13.3019,4.60081,2470.661,2023-7-04T13:38:15Z
2023-07-04T11:39:02Z,42.805,6.029,13.3026,4.60081,2470.637,2023-7-04T13:41:18Z
2023-07-04T11:42:05Z,42.805,6.029,13.3025,4.60081,2470.646,2023-7-04T13:44:21Z
2023-07-04T11:45:08Z,42.805,6.029,13.3024,4.60081,2470.624,2023-7-04T13:47:24Z
2023-07-04T11:48:11Z,42.805,6.029,13.3027,4.60082,2470.661,2023-7-04T13:50:27Z
2023-07-04T11:51:14Z,42.805,6.029,13.3028,4.60082,2470.646,2023-7-04T13:53:30Z
2023-07-04T11:54:17Z,42.805,6.029,13.3023,4.60081,2470.614,2023-7-04T13:56:33Z
2023-07-04T11:57:20Z,42.805,6.029,13.3022,4.60081,2470.624,2023-7-04T13:59:36Z
2023-07-04T12:00:23Z,42.805,6.029,13.3027,4.60081,2470.6,2023-7-04T14:02:39Z
2023-07-04T12:03:27Z,42.805,6.029,13.3026,4.60081,2470.591,2023-7-04T14:05:42Z
2023-07-04T12:06:30Z,42.805,6.029,13.3024,4.60081,2470.614,2023-7-04T14:08:45Z
2023-07-04T12:09:33Z,42.805,6.029,13.3019,4.60081,2470.624,2023-7-04T14:11:48Z
2023-07-04T12:12:36Z,42.805,6.029,13.3021,4.60081,2470.6,2023-7-04T14:14:52Z
2023-07-04T12:15:39Z,42.805,6.029,13.3026,4.60081,2470.637,2023-7-04T14:17:55Z
2023-07-04T12:18:42Z,42.805,6.029,13.3024,4.60080,2470.624,2023-7-04T14:20:58Z
2023-07-04T12:21:45Z,42.805,6.029,13.3026,4.60081,2470.624,2023-7-04T14:24:01Z
2023-07-04T12:24:48Z,42.805,6.029,13.3024,4.60081,2470.6,2023-7-04T14:27:04Z
2023-07-04T12:27:51Z,42.805,6.029,13.3026,4.60081,2470.6,2023-7-04T14:30:07Z
2023-07-04T12:30:54Z,42.805,6.029,13.3024,4.60081,2470.6,2023-7-04T14:33:10Z
2023-07-04T12:33:57Z,42.805,6.029,13.3026,4.60081,2470.6,2023-7-04T14:36:13Z
2023-07-04T12:37:00Z,42.805,6.029,13.3024,4.60081,2470.6,2023-7-04T14:39:16Z
2023-07-04T12:40:04Z,42.805,6.029,13.3026,4.60081,2470.577,2023-7-04T14:42:19Z
2023-07-04T12:43:07Z,42.805,6.029,13.3024,4.60081,2470.6,2023-7-04T14:45:22Z
2023-07-04T12:46:10Z,42.805,6.029,13.3026,4.60081,2470.624,2023-7-04T14:48:25Z
2023-07-04T12:49:13Z,42.805,6.029,13.3023,4.60081,2470.586,2023-7-04T14:51:29Z
2023-07-04T12:52:16Z,42.805,6.029,13.3024,4.60082,2470.553,2023-7-04T14:54:32Z
2023-07-04T12:55:19Z,42.805,6.029,13.3024,4.60080,2470.591,2023-7-04T14:57:35Z
2023-07-04T12:58:22Z,42.805,6.029,13.3021,4.60081,2470.591,2023-7-04T15:00:38Z
2023-07-04T13:01:25Z,42.805,6.029,13.3024,4.60080,2470.6,2023-7-04T15:03:41Z
2023-07-04T13:04:28Z,42.805,6.029,13.3021,4.60081,2470.614,2023-7-04T15:06:44Z
2023-07-04T13:07:31Z,42.805,6.029,13.3021,4.60081,2470.614,2023-7-04T15:09:47Z
2023-07-04T13:10:34Z,42.805,6.029,13.3026,4.60081,2470.577,2023-7-04T15:12:50Z
2023-07-04T13:13:37Z,42.805,6.029,13.3021,4.60084,2470.591,2023-7-04T15:15:53Z
2023-07-04T13:16:41Z,42.805,6.029,13.3025,4.60081,2470.6,2023-7-04T15:18:56Z
2023-07-04T13:19:44Z,42.805,6.029,13.3022,4.60080,2470.577,2023-7-04T15:21:59Z
2023-07-04T13:22:47Z,42.805,6.029,13.3025,4.60081,2470.577,2023-7-04T15:25:02Z
2023-07-04T13:25:50Z,42.805,6.029,13.3019,4.60081,2470.6,2023-7-04T15:28:06Z
2023-07-04T13:28:53Z,42.805,6.029,13.3023,4.60081,2470.6,2023-7-04T15:31:09Z
2023-07-04T13:31:56Z,42.805,6.029,13.3024,4.60081,2470.577,2023-7-04T15:34:12Z
2023-07-04T13:34:59Z,42.805,6.029,13.3024,4.60081,2470.614,2023-7-04T15:37:15Z
2023-07-04T13:38:02Z,42.805,6.029,13.3024,4.60081,2470.614,2023-7-04T15:40:18Z
2023-07-04T13:41:05Z,42.805,6.029,13.3024,4.60080,2470.553,2023-7-04T15:43:21Z
2023-07-04T13:44:08Z,42.805,6.029,13.3025,4.60081,2470.614,2023-7-04T15:46:24Z
2023-07-04T13:47:11Z,42.805,6.029,13.3023,4.60080,2470.553,2023-7-04T15:49:27Z
2023-07-04T13:50:14Z,42.805,6.029,13.3024,4.60080,2470.577,2023-7-04T15:52:30Z
2023-07-04T13:53:17Z,42.805,6.029,13.3025,4.60081,2470.53,2023-7-04T15:55:33Z
2023-07-04T13:56:21Z,42.805,6.029,13.3024,4.60079,2470.553,2023-7-04T15:58:36Z
2023-07-04T13:59:24Z,42.805,6.029,13.3021,4.60081,2470.577,2023-7-04T16:01:39Z
2023-07-04T14:02:27Z,42.805,6.029,13.3026,4.60081,2470.577,2023-7-04T16:04:42Z
2023-07-04T14:05:30Z,42.805,6.029,13.3021,4.60080,2470.577,2023-7-04T16:07:46Z
2023-07-04T14:08:33Z,42.805,6.029,13.3025,4.60081,2470.567,2023-7-04T16:10:49Z
2023-07-04T14:11:36Z,42.805,6.029,13.3023,4.60082,2470.553,2023-7-04T16:13:52Z
2023-07-04T14:14:39Z,42.805,6.029,13.3024,4.60082,2470.6,2023-7-04T16:16:55Z
2023-07-04T14:17:42Z,42.805,6.029,13.3024,4.60081,2470.591,2023-7-04T16:19:58Z
2023-07-04T14:20:45Z,42.805,6.029,13.3024,4.60081,2470.567,2023-7-04T16:23:01Z
2023-07-04T14:23:48Z,42.805,6.029,13.3020,4.60080,2470.577,2023-7-04T16:26:04Z
2023-07-04T14:26:51Z,42.805,6.029,13.3023,4.60081,2470.577,2023-7-04T16:29:07Z
2023-07-04T14:29:54Z,42.805,6.029,13.3024,4.60081,2470.553,2023-7-04T16:32:10Z
2023-07-04T14:32:58Z,42.805,6.029,13.3027,4.60081,2470.577,2023-7-04T16:35:13Z
2023-07-04T14:36:01Z,42.805,6.029,13.3025,4.60081,2470.577,2023-7-04T16:38:16Z
2023-07-04T14:39:04Z,42.805,6.029,13.3026,4.60080,2470.553,2023-7-04T16:41:19Z
2023-07-04T14:42:07Z,42.805,6.029,13.3021,4.60081,2470.577,2023-7-04T16:44:23Z
2023-07-04T14:45:10Z,42.805,6.029,13.3024,4.60081,2470.577,2023-7-04T16:47:26Z
2023-07-04T14:48:13Z,42.805,6.029,13.3026,4.60080,2470.577,2023-7-04T16:50:29Z
2023-07-04T14:51:16Z,42.805,6.029,13.3026,4.60080,2470.567,2023-7-04T16:53:32Z
2023-07-04T14:54:19Z,42.805,6.029,13.3023,4.60081,2470.577,2023-7-04T16:56:35Z
2023-07-04T14:57:22Z,42.805,6.029,13.3026,4.60081,2470.553,2023-7-04T16:59:38Z
2023-07-04T15:00:25Z,42.805,6.029,13.3022,4.60081,2470.577,2023-7-04T17:02:41Z
2023-07-04T15:03:28Z,42.805,6.029,13.3022,4.60080,2470.577,2023-7-04T17:05:44Z
2023-07-04T15:06:31Z,42.805,6.029,13.3024,4.60082,2470.6,2023-7-04T17:08:47Z
2023-07-04T15:09:35Z,42.805,6.029,13.3022,4.60081,2470.6,2023-7-04T17:11:50Z